Location: *
(49.8044°N, 4.0558°E)
Time: 03:39:16
(UTC+00:00)

Cosmos 1825 - Pass Details

Date: 09 April 2020
Orbit: 502 x 509 km, 82.5° (Epoch: 04 June)

Event Time Altitude Azimuth Distance (km) Brightness Sun altitude
Rises 21:35:27 0° 344° (NNW) 2,630 6.9 -25.7°
Reaches altitude 10° 21:37:38 10° 338° (NNW) 1,738 5.8 -25.9°
Enters shadow 21:40:39 40° 295° (WNW) 767 3.4 -26.1°
